PDT,Max TemperatureF,Mean TemperatureF,Min TemperatureF,Max Dew PointF,MeanDew PointF,Min DewpointF,Max Humidity, Mean Humidity, Min Humidity, Max Sea Level PressureIn, Mean Sea Level PressureIn, Min Sea Level PressureIn, Max VisibilityMiles, Mean VisibilityMiles, Min VisibilityMiles, Max Wind SpeedMPH, Mean Wind SpeedMPH, Max Gust SpeedMPH,PrecipitationIn, CloudCover, Events, WindDirDegrees
2013-4-1,53,51,48,45,44,43,86,79,71,30.17,30.10,30.01,8,6,3,15,6,22,0.00,8,,179
2013-4-2,54,51,47,46,43,41,86,76,66,30.21,30.19,30.17,9,6,2,13,4,17,T,8,Rain,191
2013-4-3,59,52,44,46,43,41,92,77,61,30.21,30.11,29.94,9,8,5,10,3,13,0.00,6,,8
2013-4-4,56,53,50,52,49,43,89,80,71,29.91,29.65,29.56,9,3,1,23,7,37,1.21,8,Rain,130
2013-4-5,52,51,49,48,47,45,93,90,86,29.84,29.75,29.58,5,2,0,20,9,31,2.08,8,Fog-Rain,186
2013-4-6,53,49,45,46,44,41,89,78,66,29.89,29.79,29.57,9,5,2,21,7,30,0.21,8,Rain,205
2013-4-7,53,49,44,45,41,39,89,76,63,29.91,29.76,29.60,10,7,2,18,7,25,0.23,8,Rain,303
2013-4-8,52,47,42,44,42,39,86,79,71,30.28,30.12,29.93,7,6,4,13,3,15,T,7,Rain,254
2013-4-9,53,49,45,45,42,39,93,76,59,30.31,30.23,30.12,8,4,1,15,6,23,0.17,8,Rain,154
2013-4-10,54,50,46,48,44,41,89,78,66,30.30,30.12,29.92,8,4,1,24,11,31,1.35,8,Rain,249
2013-4-11,53,44,35,43,37,31,83,67,50,30.35,30.30,30.22,10,7,2,14,4,18,0.06,6,Rain,282
2013-4-12,48,42,35,45,37,31,89,78,67,30.20,29.88,29.71,8,4,0,24,6,33,0.91,7,Fog-Rain,172
2013-4-13,52,46,40,43,39,33,83,77,70,30.01,29.91,29.86,8,5,1,23,10,32,0.46,7,Rain,275
2013-4-14,53,47,40,43,39,37,92,76,59,30.01,29.98,29.95,10,7,2,14,3,18,0.21,8,Rain,75
2013-4-15,59,47,35,41,36,32,92,70,47,30.19,30.02,29.95,10,5,0,15,4,21,0.00,5,Fog,61
2013-4-16,65,49,32,44,33,27,89,57,25,30.41,30.31,30.21,10,9,7,15,5,21,0.00,1,,9
2013-4-17,56,48,39,43,38,31,89,72,55,30.49,30.46,30.42,10,7,4,15,4,20,0.07,7,Rain,281
2013-4-18,52,48,44,48,45,39,89,86,83,30.46,30.34,30.19,10,3,0,13,6,22,1.60,8,Fog-Rain,157
2013-4-19,53,50,47,48,46,44,89,86,83,30.25,30.15,30.06,8,2,1,12,6,17,0.61,8,Rain,247
2013-4-20,52,49,46,46,44,42,93,85,77,30.33,30.29,30.24,10,4,1,13,5,21,0.05,8,Rain,258
2013-4-21,54,46,38,45,42,37,92,76,59,30.38,30.28,30.26,10,6,0,13,5,18,0.02,7,Fog-Rain,306
2013-4-22,65,49,33,38,28,17,89,53,16,30.52,30.47,30.40,10,9,5,18,7,25,0.00,0,,25
2013-4-23,68,51,33,45,33,27,82,52,22,30.44,30.32,30.23,10,8,6,18,6,22,0.00,1,,51
2013-4-24,70,53,35,43,35,31,86,55,24,30.32,30.23,30.11,10,9,7,16,4,24,0.00,0,,323
2013-4-25,62,51,40,48,43,36,83,72,60,30.21,30.12,30.05,9,7,5,15,4,20,0.00,4,,308
2013-4-26,61,54,46,45,43,42,86,70,53,30.29,30.25,30.22,9,6,1,12,3,14,0.00,4,,260
2013-4-27,53,50,47,49,47,42,89,85,80,30.24,30.21,30.17,9,3,1,16,7,20,0.65,8,Rain,225
2013-4-28,56,51,46,46,44,39,93,74,55,30.23,30.15,29.98,8,4,1,20,6,26,0.98,8,Rain,224
2013-4-29,53,48,43,43,36,32,83,69,54,30.22,30.15,30.01,9,7,2,21,9,30,0.05,5,Rain,294
2013-4-30,54,45,35,36,32,30,82,63,44,30.48,30.33,30.22,10,8,6,16,7,24,0.01,3,Rain,301